Das Wetter in  D-61279 Heinzenberg / Taunus





Wetter Minimum- & Maximum-Werte im Januar 2012

Standort: Heinzenberg / Taunus - Höhe 297 m         8 24' 1" Ost 50 21' 51" Nord
(   3-stündige Aktualisierung    letzte Aktualisierung um 19:04 am 31.01.2012  )


Messgrösse

Minimum

Maximum

Durchschnitt

Temperatur West /
Luftfeuchte West
Anklicken für Monats-Diagramm

-8,5 C

23:31
31.01.2012

57 %

14:26
16.01.2012

11,8 C

14:10
01.01.2012

99 %

10:25
02.01.2012

Temp

2,3 C

Feuchte

91 %

Temperatur Ost /
Luftfeuchte Ost
Anklicken für Monats-Diagramm

-8,3 C

23:21
31.01.2012

--

--
--

12,2 C

14:15
01.01.2012

--

--
--

2,5 C

--

Luftdruck Anklicken für Monats-Diagramm

989,6 hPa

14:02
05.01.2012

1035,2 hPa

22:06
10.01.2012

1021,4 hPa

Taupunkt

-11,5 C

23:31
31.01.2012

10,6 C

12:40
01.01.2012

0,9 C

Windchill
( gefühlte Temperatur )

-17,5 C

10:40
31.01.2012

11,6 C

15:25
01.01.2012

-3,1 C

Windgeschwindigkeit /
Windrichtung
Anklicken für Monats-Diagramm

---

66,7 km/h / W-SW

16:36
03.01.2012

14,4 km/h
W

Helligkeit /
Sonnenschein
Anklicken für Monats-Diagramm
Anklicken für Monats-Diagramm

Sonnenschein:

48:15 Stunden

Max: 7:20 Std am
15.01.2012

43,6 klux

12:58
12.01.2012

8,4 klux

Solarstrahlung Anklicken für Monats-Diagramm

---

298 W/m

12:58
12.01.2012

65 W/m

Regenmenge
    Januar 2012
Anklicken für Monats-Diagramm

Insgesamt 67,3 l/m

in 124:04 Stunden
an 21 Tagen

11,2 l/m

03:40
20.01.2012

Gesamtmenge

67,3 l/m

Regen-Tage
    Januar 2012
Anklicken für Monats-Diagramm

>   0 mm/Tag

>   2 mm/Tag

>   5 mm/Tag

> 10 mm/Tag

> 20 mm/Tag

21 Tage     
8 Tage     
4 Tage     
4 Tage     
0 Tage     

Eisige Tage Januar 2012 / 2011

Tmin ≤ -10C     

0 Tage

/

  1 Tag

Eistage Januar 2012 / 2011

Tmax <     0C     

2 Tage

/

3 Tage

Frosttage Januar 2012 / 2011

Tmin ≤     0C     

13 Tage

/

20 Tage

Kalte Tage Januar 2012 / 2011

Tmax <   10C     

29 Tage

/

24 Tage

Warme Tage Januar 2012 / 2011

Tmax ≥   20C     

0 Tage

/

0 Tage

Sommertage Januar 2012 / 2011

Tmax ≥   25C     

0 Tage

/

0 Tage

Heisse Tage Januar 2012 / 2011

Tmax ≥   30C     

0 Tage

/

0 Tage


Monatsdiagramm Januar 2012

Die Kurven zeigen den Durchschnittswert des jeweiligen Tages an


Wetter-Monatsübersicht Januar 2012
Datum
  Temperatur
   Luftdruck
   Wind
  Regen
   Luftfeuchte
   Helligkeit

Sonnen-
schein


Temp.

Min.
Temp.

Max.
Temp.


Luftdruck

Min.
Luftdruck

Max.
Luftdruck

-Geschw.
Haupt-Richtg.

Max.
Wind

Menge /
Dauer


Feuchte

Min.
Feuchte

Max.
Feuchte


Helligkeit

Max.
Helligkeit

1.
Januar
10,5 C8,9 C
00:00
11,8 C
14:10
1012,4 hPa1008,4 hPa
23:35
1014,7 hPa
11:05
20,4 km/h
W-SW
44,8 km/h
21:10  
1,5 l/m
2:25 Stunden
94 %90 %
14:40
98 %
00:00
3,28 klux11,90 klux
14:00
--- 
2.
Januar
7,7 C3,3 C
23:51
11,8 C
02:20
1010,7 hPa1005,4 hPa
05:55
1019,8 hPa
23:51
18,9 km/h
W-SW
45,7 km/h
01:40  
10,2 l/m
5:55 Stunden
94 %87 %
02:15
99 %
10:25
3,7 klux10,0 klux
13:55
--- 
3.
Januar
5,3 C2,6 C
02:11
9,4 C
21:31
1015,1 hPa1006,6 hPa
21:16
1021,9 hPa
02:36
31,8 km/h
W-SW
66,7 km/h
16:36  
1,2 l/m
50 Minuten
88 %81 %
13:21
97 %
22:11
5,0 klux14,4 klux
12:21
--- 
4.
Januar
4,6 C2,6 C
09:02
6,4 C
00:02
1014,4 hPa1008,2 hPa
23:57
1019,6 hPa
15:27
28,2 km/h
W-SW
50,7 km/h
23:17  
1,8 l/m
5:40 Stunden
84 %75 %
16:07
95 %
09:02
4,7 klux36,1 klux
12:22
15 Min 
5.
Januar
4,3 C1,2 C
23:43
7,2 C
10:17
996,6 hPa989,6 hPa
14:02
1008,2 hPa
00:12
38,7 km/h
W
62,6 km/h
10:12  
10,2 l/m
12:05 Stunden
92 %81 %
14:42
99 %
12:17
2,7 klux19,7 klux
15:42
15 Min 
6.
Januar
2,9 C0,2 C
01:28
5,8 C
15:28
1015,1 hPa1003,5 hPa
00:03
1024,0 hPa
23:49
22,5 km/h
W
42,3 km/h
06:03  
0,9 l/m
10:05 Stunden
94 %84 %
15:33
99 %
01:38
10,3 klux37,7 klux
12:38
1:55 Std 
7.
Januar
3,7 C2,0 C
02:39
5,7 C
14:14
1017,7 hPa1014,3 hPa
14:14
1024,0 hPa
00:04
23,1 km/h
W
45,8 km/h
17:29  
2,1 l/m
9:47 Stunden
94 %87 %
01:39
99 %
10:14
2,3 klux14,2 klux
12:49
--- 
8.
Januar
3,6 C2,4 C
03:20
5,5 C
13:50
1021,1 hPa1018,7 hPa
00:40
1026,1 hPa
23:46
16,8 km/h
W
41,2 km/h
03:55  
4,7 l/m
6:05 Stunden
96 %92 %
00:50
99 %
05:00
10,7 klux40,5 klux
13:45
1:50 Std 
9.
Januar
4,4 C2,7 C
00:01
6,0 C
16:26
1027,9 hPa1026,0 hPa
01:01
1028,8 hPa
18:56
13,9 km/h
W
32,2 km/h
19:51  
1,2 l/m
4:15 Stunden
98 %94 %
21:21
99 %
09:56
2,0 klux5,7 klux
14:46
--- 
10.
Januar
5,5 C2,8 C
23:17
7,1 C
14:26
1033,1 hPa1028,8 hPa
00:56
1035,2 hPa
22:06
8,3 km/h
W
23,3 km/h
00:56  
---
20 Minuten
95 %90 %
15:06
99 %
00:01
6,13 klux15,80 klux
12:31
5 Min 
11.
Januar
6,2 C3,0 C
00:02
8,1 C
14:27
1033,5 hPa1032,6 hPa
14:27
1034,3 hPa
00:02
10,7 km/h
W-SW
24,6 km/h
14:42  
---
87 %76 %
12:52
98 %
00:02
6,1 klux23,5 klux
13:27
25 Min 
12.
Januar
6,4 C4,1 C
23:54
8,0 C
14:13
1025,6 hPa1020,4 hPa
15:58
1032,8 hPa
00:03
22,8 km/h
W
46,8 km/h
14:38  
0,9 l/m
3:20 Stunden
91 %79 %
14:48
98 %
18:43
6,6 klux43,6 klux
12:58
15 Min 
13.
Januar
3,2 C2,0 C
23:45
4,3 C
14:59
1026,2 hPa1024,9 hPa
00:04
1028,3 hPa
23:45
20,9 km/h
W
36,1 km/h
06:44  
0,3 l/m
3:06 Stunden
84 %69 %
15:44
96 %
10:19
8,8 klux41,2 klux
13:49
1:00 Std 
14.
Januar
1,5 C-1,1 C
21:15
5,2 C
14:35
1027,7 hPa1026,8 hPa
14:35
1028,5 hPa
08:45
8,3 km/h
W-NW
22,6 km/h
15:45  
---
1:05 Stunden
88 %73 %
15:45
95 %
23:21
13,0 klux40,1 klux
13:35
3:20 Std 
15.
Januar
-1,2 C-4,2 C
23:11
4,2 C
15:01
1027,1 hPa1025,9 hPa
15:01
1028,1 hPa
23:11
0,6 km/h
SO
8,9 km/h
13:46  
---
89 %65 %
14:26
98 %
11:36
21,6 klux38,3 klux
12:51
7:20 Std 
16.
Januar
-3,3 C-6,7 C
08:46
2,8 C
16:06
1029,0 hPa1028,1 hPa
00:01
1031,4 hPa
23:52
0,6 km/h
SO
13,2 km/h
12:06  
---
84 %57 %
14:26
96 %
10:26
21,7 klux41,8 klux
11:46
7:05 Std 
17.
Januar
-3,7 C-7,2 C
07:02
3,3 C
15:42
1031,5 hPa1030,2 hPa
15:42
1033,4 hPa
23:58
0,5 km/h
SO
6,9 km/h
02:32  
---
88 %72 %
15:07
94 %
10:07
17,4 klux39,8 klux
12:57
5:20 Std 
18.
Januar
-2,1 C-7,4 C
09:03
4,3 C
14:23
1030,5 hPa1025,1 hPa
23:44
1033,7 hPa
06:13
6,4 km/h
W-SW
28,6 km/h
15:08  
0,8 l/m
3:16 Stunden
90 %73 %
14:43
98 %
23:49
15,9 klux38,3 klux
11:48
4:15 Std 
19.
Januar
5,0 C2,3 C
00:04
9,0 C
16:29
1018,2 hPa1011,8 hPa
16:29
1026,1 hPa
00:04
20,8 km/h
W
53,9 km/h
13:19  
10,3 l/m
13:15 Stunden
97 %93 %
18:54
99 %
05:49
2,5 klux6,6 klux
12:19
--- 
20.
Januar
1,6 C0,2 C
14:05
4,0 C
00:25
1015,4 hPa1011,5 hPa
03:30
1018,1 hPa
23:01
16,8 km/h
W
53,0 km/h
03:50  
11,2 l/m
12:30 Stunden
98 %93 %
06:45
99 %
14:00
2,59 klux13,50 klux
09:45
5 Min 
21.
Januar
3,7 C0,3 C
00:21
8,1 C
15:46
1010,3 hPa1003,7 hPa
17:06
1018,1 hPa
00:21
21,2 km/h
W-SW
50,7 km/h
20:41  
3,0 l/m
8:45 Stunden
98 %89 %
23:27
99 %
00:26
4,4 klux10,6 klux
12:31
--- 
22.
Januar
4,4 C3,3 C
10:52
6,1 C
19:52
1009,4 hPa1007,1 hPa
18:27
1013,5 hPa
23:48
31,5 km/h
W
49,5 km/h
20:12  
3,0 l/m
9:35 Stunden
88 %77 %
08:07
98 %
16:47
4,4 klux15,7 klux
11:12
--- 
23.
Januar
3,0 C1,2 C
20:38
4,9 C
14:53
1015,6 hPa1013,4 hPa
00:03
1017,0 hPa
20:48
17,5 km/h
W
40,1 km/h
15:43  
2,0 l/m
5:25 Stunden
93 %85 %
00:03
99 %
22:08
6,4 klux21,5 klux
14:43
15 Min 
24.
Januar
1,4 C-1,3 C
23:45
3,5 C
13:19
1021,2 hPa1016,9 hPa
00:04
1024,6 hPa
23:45
8,7 km/h
W
31,2 km/h
00:34  
0,6 l/m
3:05 Stunden
96 %86 %
13:34
99 %
00:04
7,7 klux39,2 klux
12:19
30 Min 
25.
Januar
-1,1 C-4,0 C
06:35
2,7 C
14:30
1023,8 hPa1022,2 hPa
16:50
1024,9 hPa
06:35
6,1 km/h
O-SO
23,1 km/h
23:55  
---
97 %89 %
16:15
99 %
00:00
13,2 klux37,6 klux
13:50
2:55 Std 
26.
Januar
-0,7 C-2,5 C
08:20
1,5 C
13:55
1021,0 hPa1020,0 hPa
13:55
1022,6 hPa
09:20
17,2 km/h
O-SO
32,9 km/h
18:25  
---
87 %77 %
14:05
94 %
00:00
18,6 klux42,2 klux
12:11
5:00 Std 
27.
Januar
0,4 C-0,6 C
02:21
1,9 C
13:21
1024,4 hPa1020,2 hPa
00:21
1027,4 hPa
22:22
0,6 km/h
NW
11,0 km/h
00:16  
1,2 l/m
3:15 Stunden
96 %85 %
00:01
99 %
17:07
5,2 klux15,5 klux
12:21
--- 
28.
Januar
0,4 C-1,0 C
21:02
1,7 C
13:37
1028,4 hPa1027,4 hPa
01:07
1029,7 hPa
21:02
0,6 km/h
NO
14,1 km/h
18:32  
---
96 %90 %
19:12
99 %
00:02
3,1 klux7,8 klux
13:17
--- 
29.
Januar
-1,3 C-2,4 C
23:28
-0,6 C
03:58
1028,3 hPa1026,8 hPa
23:53
1029,7 hPa
00:03
4,5 km/h
NO
20,5 km/h
09:23  
---
89 %83 %
12:38
97 %
03:28
3,99 klux13,20 klux
12:33
--- 
30.
Januar
-1,8 C-2,7 C
05:28
0,4 C
13:58
1026,5 hPa1025,4 hPa
14:18
1027,8 hPa
00:03
1,1 km/h
O
14,8 km/h
11:18  
---
84 %74 %
15:18
90 %
07:18
8,8 klux33,1 klux
13:38
20 Min 
31.
Januar
-4,7 C-8,5 C
23:31
-1,6 C
15:35
1025,5 hPa1023,6 hPa
14:35
1028,7 hPa
23:31
6,4 km/h
NO
25,6 km/h
17:10  
---
75 %59 %
16:10
84 %
00:35
19,1 klux37,5 klux
13:00
5:50 Std 



Januar
2012

Temperatur

  

Luftdruck

  

Wind

  

Regen

  

Luftfeuchte

  

Helligkeit

Sonnen-
schein

Min

Max

Min

Max

Max

Max

Min

Max

Max

Max

2,3 C

-8,5 C

23:31 Uhr
31.01.2012

11,8 C

14:10 Uhr
01.01.2012

1021,4 hPa

989,6 hPa

14:02 Uhr
05.01.2012

1035,2 hPa

22:06 Uhr
10.01.2012

14,4 km/h

W

66,7 km/h

16:36 Uhr
03.01.2012

11,2 l/m

12:30 Stunden
20.01.2012

91 %

57 %

14:26 Uhr
16.01.2012

99 %

10:25 Uhr
02.01.2012

8,4 klux

43,60 klux

12:58 Uhr
12.01.2012

7:20 Std

am
15.01.2012

Gesamt

Gesamt

67,3 l/m

21 Tage
124:04 h

48:15 Std


Wetter-Diagramme Januar 2012     Heinzenberg / Taunus   
TemperaturLuftfeuchte
SolarstrahlungLuftdruck
HelligkeitSonnenschein
RegenmengeRegendauer
Wind-GeschwindigkeitWind-Richtung